Find Jilin-1 GaoFen 07C 02 xing

NORAD ID: 68697 Int'l Des: 2026-080 Owner: CGSTL Country: CN Constellation: jilin-1 operational
LEOCIRCULARRETROGRADESSO

リアルタイム位置

3D地球を読み込み中...

Jilin-1 GaoFen 07C 02 xingについて

説明を読み込み中...

次回通過

Passes for default location (London). Set your location on the main map for personalized predictions.

高度履歴

Loading altitude history...

軌道要素

1 68697U 26080G 26105.07421781 .00002560 00000-0 16347-3 0 9993
2 68697 97.6672 180.7171 0014131 282.1232 77.8414 15.09509936 109
Epoch: Apr 15, 2026 • Age: 29 hours

現在のステータス

高度 557.0 km
速度 7.58 km/s
衛星直下点 60.04°N, 66.75°E
打ち上げ日 Apr 14, 2026
運用期間 2 days
タイプ other

技術仕様

分類 Payload
質量 50.00 kg
乾燥質量 50.00 kg
総質量 50.00 kg
長さ 1.50 m
直径 1.00 m
スパン 1.50 m
形状 Box
製造者 CGSTL
バスタイプ JL-1GF07
フェーズステータス In Orbit
所有者/国 CGSTL/CN

Most Searched